Home > Weather > Milwaukee > Past weeks

Flag for USA Past Weather in Milwaukee, Wisconsin, USA — Yesterday and Last 2 Weeks

Now
72 °F

Passing clouds.


Feels Like: 71 °F
Forecast: 66 / 79 °F
Wind: No wind

Location: Milwaukee / Timmerman

Current Time: Aug 27, 2016 at 9:29:58 PM

Latest Report: Aug 27, 2016 at 8:45 PM


Visibility: 10 mi

Pressure: 30.06 "Hg

Humidity: 83%

Dew Point: 66 °F

Location of MilwaukeeLocation

Past Weather in Milwaukee — Graph

°F

Milwaukee Temperature Yesterday

Maximum temperature yesterday: 75 °F (at 2:45 PM)
Minimum temperature yesterday: 59 °F (at 5:55 AM)
Average temperature yesterday: 67 °F

High & Low Weather Summary for the Past Weeks

 TemperatureHumidityPressure
High84 °F (Aug 16, 3:45 PM)94% (Aug 12, 10:15 PM)30.20 "Hg (Aug 12, 10:15 PM)
Low52 °F (Aug 22, 4:55 AM)34% (Aug 22, 1:45 PM)29.56 "Hg (Aug 20, 3:45 PM)
Average70 °F73%29.99 "Hg
* Reported Aug 12 7:45 PM — Aug 27 7:45 PM, Milwaukee, Weather by CustomWeather, © 2016

Note: Actual official high and low records may vary slightly from our data, if they occured in-between our weather recording intervals... More about our weather records

Advertising

Milwaukee Weather History for the Previous 24 Hours

Scroll right to see more
 ConditionsComfort  
Time TempWeatherWind HumidityBarometerVisibility
7:45 PM
Sat, Aug 27
73 °FSunny.3 mph78%30.03 "Hg10 mi
5:45 PM77 °FBroken clouds.No wind69%30.01 "Hg10 mi
4:45 PM77 °FCloudy.5 mph69%30.01 "Hg10 mi
3:45 PM75 °FCloudy.5 mph74%30.01 "Hg10 mi
2:45 PM75 °FPartly sunny.7 mph74%30.02 "Hg10 mi
1:45 PM73 °FOvercast.No wind74%30.04 "Hg10 mi
12:45 PM68 °FMostly cloudy.5 mph83%30.05 "Hg10 mi
11:45 AM66 °FLow clouds.5 mph83%30.06 "Hg10 mi
10:45 AM64 °FLow clouds.6 mph88%30.06 "Hg10 mi
9:45 AM63 °FLow clouds.6 mph83%30.09 "Hg10 mi
8:45 AM63 °FLight rain. More clouds than sun.6 mph83%30.11 "Hg10 mi
7:45 AM63 °FMostly cloudy.6 mph83%30.12 "Hg10 mi
6:35 AM61 °FMostly cloudy.7 mph94%30.12 "Hg10 mi
6:15 AM61 °FLight rain. Mostly cloudy.7 mph94%30.11 "Hg10 mi
5:55 AM61 °FMostly cloudy.7 mph94%30.11 "Hg10 mi
5:35 AM61 °FOvercast.8 mph94%30.10 "Hg10 mi
5:15 AM61 °FPartly cloudy.7 mph94%30.10 "Hg10 mi
4:55 AM61 °FLight rain. Partly cloudy.7 mph94%30.10 "Hg10 mi
4:35 AM63 °FLight rain. Partly cloudy.7 mph88%30.11 "Hg10 mi
4:15 AM63 °FRain. Overcast.9 mph88%30.12 "Hg5 mi
3:55 AM63 °FRain. Mostly cloudy.13 mph88%30.16 "Hg10 mi
3:15 AM64 °FHeavy rain. Overcast.6 mph83%30.12 "Hg7 mi
2:55 AM64 °FLight rain. Overcast.6 mph83%30.11 "Hg10 mi
2:35 AM64 °FLight rain. Mostly cloudy.3 mph83%30.13 "Hg10 mi
2:15 AM64 °FMostly cloudy.No wind83%30.13 "Hg10 mi
1:55 AM64 °FOvercast.3 mph83%30.12 "Hg10 mi
1:35 AM64 °FOvercast.6 mph78%30.12 "Hg10 mi
1:15 AM64 °FMostly cloudy.No wind78%30.14 "Hg10 mi
12:55 AM64 °FPartly cloudy.No wind78%30.14 "Hg10 mi
12:35 AM64 °FPassing clouds.No wind78%30.14 "Hg10 mi
12:15 AM64 °FClear.No wind73%30.14 "Hg10 mi
11:55 PM
Fri, Aug 26
66 °FPassing clouds.No wind68%30.14 "Hg10 mi
11:35 PM66 °FPassing clouds.No wind68%30.14 "Hg10 mi
11:15 PM66 °FClear.3 mph68%30.15 "Hg10 mi
10:55 PM66 °FClear.5 mph68%30.15 "Hg10 mi
10:35 PM68 °FClear.3 mph64%30.16 "Hg10 mi
10:15 PM68 °FClear.No wind64%30.16 "Hg10 mi
9:55 PM68 °FClear.3 mph64%30.17 "Hg10 mi
9:35 PM68 °FClear.No wind60%30.18 "Hg10 mi
9:15 PM68 °FClear.No wind60%30.18 "Hg10 mi
Weather by CustomWeather, © 2016

See weather overviewHow to use our weather pages